Location: Limerick
(52.6800°N, 8.6400°W)
Time: 22:17:32
(UTC+00:00)

Sapphire - Visible Passes

Search period start: 10 December 2016 00:00
Search period end: 20 December 2016 00:00
Orbit: 788 x 794 km, 67.1° (Epoch: 09 December)

Date Brightness Start Highest point End Pass type
(mag) Time Alt. Az. Time Alt. Az. Time Alt. Az.
10 Dec ? 16:54:43 10° NNW 16:58:46 21° NNE 17:02:49 10° ENE visible
10 Dec ? 18:38:15 10° NNW 18:43:30 46° NE 18:44:26 42° ENE visible
10 Dec ? 20:21:49 10° NW 20:25:11 33° WNW 20:25:11 33° WNW visible
11 Dec ? 18:07:36 10° NNW 18:12:43 39° NE 18:15:11 25° E visible
11 Dec ? 19:51:03 10° NW 19:55:57 55° W 19:55:57 55° W visible
12 Dec ? 17:36:58 10° NNW 17:41:53 33° NNE 17:46:06 13° E visible
12 Dec ? 19:20:21 10° NW 19:25:47 73° SW 19:26:54 55° S visible
12 Dec ? 21:05:21 10° WNW 21:07:41 15° W 21:07:41 15° W visible
13 Dec ? 17:06:19 10° NNW 17:11:02 29° NNE 17:15:45 10° E visible
13 Dec ? 18:49:40 10° NW 18:55:08 90° NNE 18:58:08 28° SE visible
13 Dec ? 20:34:05 10° WNW 20:37:53 20° WSW 20:38:57 19° WSW visible
14 Dec ? 18:19:00 10° NW 18:24:28 73° NE 18:29:49 10° SE visible
14 Dec ? 20:03:03 10° WNW 20:07:25 25° WSW 20:10:40 15° SSW visible
15 Dec ? 17:48:21 10° NW 17:53:45 59° NE 17:59:07 10° SE visible
15 Dec ? 19:32:08 10° NW 19:36:56 33° WSW 19:41:42 10° S visible
16 Dec ? 17:17:43 10° NNW 17:23:01 49° NE 17:28:16 10° ESE visible
16 Dec ? 19:01:19 10° NW 19:06:25 42° WSW 19:11:29 10° S visible
17 Dec ? 18:30:33 10° NW 18:35:51 54° WSW 18:41:07 10° SSE visible
18 Dec ? 17:59:50 10° NW 18:05:15 69° SW 18:10:38 10° SSE visible
18 Dec ? 19:45:03 10° WNW 19:47:42 14° WSW 19:50:20 10° SW visible
19 Dec ? 17:29:09 10° NW 17:34:37 86° SW 17:40:03 10° SE visible
19 Dec ? 19:13:41 10° WNW 19:17:18 18° WSW 19:20:54 10° SSW visible
